Home   Weather   Kopervik   Past weeks

Flag for Norway Past Weather in Kopervik, Norway — Yesterday and Last 2 Weeks

46 °F


Feels Like: 40 °F
Forecast: 49 / 54 °F
Wind: 15 mph from Southeast

Location: Karmoy

Current Time: Oct 26, 2016 at 4:21:54 AM

Latest Report: Oct 26, 2016 at 3:50 AM

Visibility: N/A

Pressure: 30.18 "Hg

Humidity: 82%

Dew Point: 41 °F

Location of KopervikLocation

Past Weather in Kopervik — Graph


Kopervik Temperature Yesterday

Maximum temperature yesterday: 50 °F (at 12:50 PM)
Minimum temperature yesterday: 32 °F (at 3:20 AM)
Average temperature yesterday: 42 °F

High & Low Weather Summary for the Past Weeks

High57 °F (Oct 20, 2:50 PM)100% (Oct 11, 5:50 AM)30.54 "Hg (Oct 11, 5:50 AM)
Low30 °F (Oct 14, 8:20 AM)28% (Oct 15, 4:50 PM)29.92 "Hg (Oct 18, 6:50 AM)
Average47 °F70%30.23 "Hg
* Reported Oct 11 2:20 AM — Oct 26 2:50 AM, Kopervik, Weather by CustomWeather, © 2016

Note: Actual official high and low records may vary slightly from our data, if they occured in-between our weather recording intervals... More about our weather records


Kopervik Weather History for the Previous 24 Hours

Scroll right to see more
Time TempWeatherWind HumidityBarometerVisibility
2:50 AM
Wed, Oct 26
46 °FOvercast.14 mph76%30.21 "HgN/A
2:20 AM46 °FPassing clouds.16 mph76%30.21 "HgN/A
1:50 AM46 °FPartly cloudy.14 mph76%30.21 "HgN/A
1:20 AM46 °FPassing clouds.14 mph76%30.24 "HgN/A
12:50 AM46 °FPassing clouds.14 mph76%30.24 "HgN/A
12:20 AM46 °FPassing clouds.13 mph76%30.24 "HgN/A
11:50 PM
Tue, Oct 25
46 °FOvercast.12 mph76%30.24 "HgN/A
11:20 PM46 °FOvercast.13 mph76%30.27 "HgN/A
10:50 PM46 °FPassing clouds.12 mph76%30.27 "HgN/A
10:20 PM45 °FPassing clouds.9 mph76%30.27 "HgN/A
9:50 PM46 °FPassing clouds.9 mph66%30.27 "HgN/A
9:20 PM46 °FPassing clouds.9 mph66%30.27 "HgN/A
8:50 PM46 °FPassing clouds.9 mph66%30.27 "HgN/A
8:20 PM46 °FPassing clouds.10 mph71%30.27 "HgN/A
7:50 PM45 °FPassing clouds.10 mph81%30.27 "HgN/A
7:20 PM45 °FPassing clouds.9 mph76%30.27 "HgN/A
6:50 PM41 °FPassing clouds.8 mph81%30.27 "HgN/A
6:20 PM45 °FPassing clouds.10 mph76%30.27 "HgN/A
5:50 PM45 °FPartly sunny.8 mph76%30.27 "HgN/A
5:20 PM46 °FScattered clouds.9 mph71%30.27 "HgN/A
4:50 PM48 °FPassing clouds.13 mph66%30.27 "HgN/A
4:20 PM48 °FPassing clouds.12 mph62%30.27 "HgN/A
3:50 PM48 °FSunny.10 mph62%30.27 "Hg10 mi
3:20 PM48 °FSunny.12 mph66%30.27 "Hg10 mi
2:50 PM50 °FScattered clouds.12 mph58%30.27 "HgN/A
2:20 PM50 °FPassing clouds.10 mph62%30.27 "HgN/A
1:50 PM50 °FPassing clouds.8 mph62%30.27 "HgN/A
1:20 PM50 °FPassing clouds.8 mph67%30.27 "HgN/A
12:50 PM50 °FSunny.8 mph71%30.27 "Hg10 mi
12:20 PM48 °FSunny.9 mph76%30.27 "Hg10 mi
11:50 AM48 °FSunny.7 mph76%30.27 "Hg10 mi
11:20 AM46 °FSunny.8 mph76%30.27 "Hg10 mi
10:50 AM43 °FSunny.6 mph87%30.27 "Hg10 mi
10:20 AM39 °FSunny.8 mph87%30.27 "Hg10 mi
9:50 AM41 °FSunny.9 mph87%30.27 "Hg10 mi
9:20 AM36 °FSunny.6 mph87%30.27 "Hg10 mi
8:50 AM37 °FSunny.6 mph81%30.27 "Hg10 mi
8:20 AM36 °FClear.9 mph87%30.24 "Hg10 mi
7:50 AM34 °FClear.9 mph87%30.24 "Hg10 mi
7:20 AM36 °FClear.8 mph87%30.24 "Hg10 mi
6:50 AM34 °FClear.9 mph93%30.24 "Hg10 mi
6:20 AM37 °FClear.9 mph81%30.24 "Hg10 mi
5:50 AM36 °FClear.8 mph81%30.24 "Hg10 mi
5:20 AM34 °FChilly.8 mph87%30.24 "HgN/A
4:50 AM36 °FChilly.8 mph87%30.24 "HgN/A
4:20 AM39 °FChilly.8 mph75%30.24 "HgN/A
Weather by CustomWeather, © 2016

See weather overviewHow to use our weather pages